QPF
0.01 0.01 0.01 0.01 0.01 0.01 0.01 0.01 0.02 0.01 0.01 0.00 0.00 0.01 0.01 0.02 0.02 0.02 0.02 0.01 0.01 0.01 0.01 0.01 0.01 0.01 0.01 0.01 0.00 0.00 0.01 0.01 0.01 0.01 0.02 0.03 0.02 0.02
0.01 0.01 0.01 0.01 0.01 0.01 0.01 0.01 0.01 0.02 0.02 0.01 0.00 0.00 0.01 0.02 0.03 0.03 0.02 0.02 0.01 0.01 0.01 0.01 0.01 0.01 0.01 0.01 0.01 0.01 0.01 0.01 0.01 0.01 0.01 0.02 0.02 0.02
0.01 0.01 0.01 0.01 0.01 0.01 0.01 0.01 0.01 0.01 0.02 0.01 0.01 0.01 0.01 0.01 0.02 0.03 0.03 0.03 0.02 0.02 0.02 0.02 0.01 0.01 0.01 0.00 0.00 0.01 0.01 0.01 0.01 0.01 0.01 0.01 0.01 0.02
0.01 0.01 0.01 0.01 0.01 0.01 0.01 0.01 0.02 0.01 0.01 0.01 0.01 0.01 0.01 0.01 0.01 0.02 0.03 0.03 0.02 0.02 0.02 0.01 0.01 0.01 0.01 0.01 0.00 0.00 0.00 0.01 0.01 0.01 0.01 0.01 0.01 0.02
0.02 0.02 0.02 0.02 0.02 0.02 0.01 0.01 0.01 0.01 0.01 0.01 0.01 0.01 0.01 0.01 0.01 0.01 0.02 0.03 0.02 0.02 0.01 0.01 0.01 0.01 0.01 0.01 0.00 0.00 0.00 0.00 0.01 0.01 0.01 0.02 0.02 0.02
0.02 0.02 0.02 0.02 0.02 0.02 0.02 0.01 0.01 0.01 0.02 0.02 0.01 0.01 0.01 0.00 0.01 0.01 0.02 0.03 0.02 0.01 0.01 0.01 0.01 0.01 0.01 0.01 0.01 0.00 0.00 0.00 0.01 0.01 0.01 0.01 0.02 0.02
0.02 0.01 0.01 0.01 0.01 0.01 0.01 0.01 0.01 0.02 0.02 0.02 0.01 0.01 0.01 0.01 0.01 0.01 0.01 0.02 0.03 0.02 0.01 0.01 0.01 0.01 0.01 0.01 0.01 0.01 0.01 0.01 0.01 0.01 0.01 0.01 0.01 0.01
0.02 0.02 0.01 0.01 0.01 0.01 0.01 0.01 0.02 0.02 0.02 0.02 0.02 0.01 0.01 0.01 0.01 0.01 0.01 0.02 0.03 0.03 0.02 0.02 0.02 0.02 0.02 0.01 0.01 0.01 0.01 0.01 0.01 0.01 0.01 0.01 0.01 0.01
0.02 0.02 0.01 0.01 0.01 0.01 0.01 0.02 0.02 0.02 0.03 0.03 0.03 0.02 0.02 0.01 0.01 0.01 0.01 0.02 0.03 0.03 0.03 0.03 0.02 0.02 0.02 0.02 0.02 0.02 0.02 0.02 0.02 0.01 0.01 0.01 0.01 0.02
0.02 0.01 0.01 0.01 0.01 0.01 0.01 0.01 0.02 0.02 0.02 0.02 0.01 0.01 0.01 0.01 0.01 0.02 0.02 0.02 0.02 0.02 0.03 0.03 0.03 0.02 0.02 0.02 0.02 0.02 0.02 0.02 0.02 0.02 0.02 0.02 0.02 0.02
0.02 0.01 0.02 0.01 0.02 0.02 0.02 0.02 0.01 0.01 0.01 0.01 0.01 0.01 0.01 0.01 0.01 0.01 0.01 0.02 0.01 0.01 0.02 0.02 0.02 0.02 0.02 0.02 0.02 0.02 0.02 0.02 0.02 0.02 0.02 0.02 0.02 0.02
0.02 0.02 0.02 0.02 0.02 0.02 0.02 0.02 0.02 0.01 0.01 0.01 0.01 0.01 0.01 0.01 0.01 0.01 0.01 0.01 0.01 0.01 0.01 0.01 0.01 0.02 0.02 0.02 0.02 0.02 0.02 0.02 0.02 0.02 0.02 0.02 0.02 0.02
0.03 0.02 0.02 0.02 0.02 0.02 0.02 0.02 0.02 0.02 0.02 0.02 0.01 0.01 0.01 0.01 0.00 0.01 0.01 0.01 0.02 0.02 0.02 0.02 0.02 0.02 0.02 0.02 0.01 0.01 0.02 0.02 0.02 0.02 0.01 0.01 0.02 0.02
0.03 0.02 0.02 0.03 0.02 0.02 0.01 0.01 0.01 0.02 0.02 0.02 0.01 0.01 0.01 0.01 0.01 0.01 0.01 0.01 0.02 0.02 0.02 0.03 0.04 0.03 0.03 0.02 0.02 0.01 0.01 0.02 0.02 0.02 0.02 0.01 0.02 0.03
0.03 0.03 0.03 0.04 0.03 0.02 0.02 0.01 0.01 0.01 0.01 0.01 0.01 0.01 0.01 0.01 0.01 0.01 0.01 0.01 0.01 0.01 0.01 0.02 0.02 0.03 0.03 0.03 0.02 0.01 0.01 0.01 0.02 0.02 0.03 0.03 0.02 0.02
0.04 0.04 0.04 0.04 0.03 0.03 0.02 0.02 0.01 0.01 0.01 0.01 0.01 0.00 0.01 0.01 0.01 0.01 0.01 0.01 0.02 0.02 0.01 0.01 0.01 0.02 0.03 0.03 0.02 0.02 0.02 0.02 0.01 0.01 0.02 0.02 0.02 0.02
0.04 0.04 0.04 0.04 0.04 0.03 0.03 0.02 0.02 0.02 0.02 0.01 0.01 0.01 0.01 0.01 0.01 0.01 0.01 0.01 0.02 0.01 0.01 0.02 0.02 0.02 0.02 0.03 0.03 0.02 0.02 0.02 0.01 0.01 0.01 0.02 0.02 0.02
0.04 0.04 0.04 0.03 0.03 0.03 0.03 0.03 0.03 0.02 0.02 0.02 0.02 0.01 0.01 0.01 0.01 0.01 0.01 0.02 0.02 0.01 0.01 0.01 0.02 0.02 0.03 0.03 0.03 0.03 0.02 0.02 0.02 0.01 0.02 0.02 0.02 0.01
0.04 0.04 0.03 0.03 0.03 0.03 0.02 0.02 0.02 0.02 0.02 0.03 0.02 0.02 0.02 0.01 0.01 0.01 0.02 0.02 0.02 0.02 0.02 0.02 0.02 0.02 0.03 0.03 0.02 0.02 0.02 0.03 0.02 0.02 0.02 0.02 0.02 0.02
0.03 0.02 0.02 0.02 0.02 0.02 0.02 0.02 0.02 0.02 0.02 0.03 0.03 0.03 0.02 0.02 0.02 0.02 0.02 0.02 0.02 0.02 0.02 0.02 0.02 0.03 0.03 0.03 0.03 0.02 0.02 0.03 0.03 0.03 0.03 0.02 0.02 0.02
0.02 0.02 0.02 0.02 0.02 0.02 0.02 0.02 0.02 0.02 0.02 0.02 0.02 0.02 0.02 0.02 0.02 0.02 0.02 0.02 0.02 0.02 0.02 0.02 0.02 0.02 0.02 0.03 0.03 0.03 0.02 0.02 0.03 0.03 0.03 0.04 0.04 0.03
0.02 0.02 0.02 0.02 0.02 0.02 0.02 0.02 0.02 0.02 0.02 0.02 0.02 0.02 0.02 0.02 0.02 0.02 0.02 0.02 0.02 0.02 0.02 0.02 0.02 0.02 0.02 0.03 0.02 0.02 0.02 0.02 0.03 0.03 0.03 0.05 0.07 0.06
0.02 0.02 0.02 0.02 0.02 0.02 0.02 0.02 0.02 0.02 0.01 0.02 0.02 0.02 0.02 0.02 0.03 0.03 0.02 0.02 0.02 0.02 0.02 0.02 0.02 0.02 0.02 0.02 0.02 0.02 0.02 0.02 0.03 0.04 0.05 0.04 0.04 0.04
MSLP
1027.93 1028.20 1028.47 1028.73 1028.98 1029.21 1029.44 1029.65 1029.84 1030.03 1030.21 1030.38 1030.55 1030.71 1030.87 1031.02 1031.16 1031.30 1031.42 1031.53 1031.63 1031.71 1031.77 1031.81 1031.83 1031.85 1031.87 1031.89 1031.91 1031.94 1031.97 1032.00 1032.01 1032.00 1031.96 1031.89 1031.78 1031.66
1027.88 1028.14 1028.39 1028.63 1028.86 1029.08 1029.29 1029.50 1029.70 1029.90 1030.09 1030.29 1030.48 1030.66 1030.83 1031.00 1031.15 1031.28 1031.40 1031.50 1031.58 1031.64 1031.69 1031.71 1031.73 1031.73 1031.74 1031.76 1031.78 1031.81 1031.85 1031.89 1031.91 1031.92 1031.89 1031.84 1031.76 1031.65
1027.79 1028.04 1028.29 1028.52 1028.75 1028.96 1029.18 1029.39 1029.61 1029.83 1030.05 1030.27 1030.49 1030.69 1030.88 1031.04 1031.19 1031.31 1031.41 1031.48 1031.53 1031.56 1031.57 1031.57 1031.56 1031.54 1031.54 1031.54 1031.55 1031.58 1031.61 1031.65 1031.69 1031.71 1031.70 1031.67 1031.61 1031.53
1027.67 1027.93 1028.18 1028.41 1028.64 1028.87 1029.10 1029.33 1029.57 1029.82 1030.07 1030.31 1030.55 1030.77 1030.96 1031.13 1031.26 1031.36 1031.43 1031.47 1031.48 1031.47 1031.44 1031.40 1031.36 1031.31 1031.27 1031.25 1031.25 1031.26 1031.29 1031.32 1031.36 1031.39 1031.40 1031.39 1031.36 1031.30
1027.55 1027.82 1028.08 1028.33 1028.57 1028.81 1029.05 1029.30 1029.56 1029.83 1030.10 1030.36 1030.61 1030.84 1031.03 1031.19 1031.30 1031.38 1031.42 1031.42 1031.40 1031.35 1031.28 1031.20 1031.12 1031.04 1030.97 1030.92 1030.89 1030.88 1030.89 1030.91 1030.94 1030.98 1031.00 1031.01 1031.00 1030.97
1027.48 1027.76 1028.03 1028.28 1028.53 1028.78 1029.02 1029.28 1029.55 1029.82 1030.10 1030.36 1030.61 1030.83 1031.01 1031.15 1031.25 1031.31 1031.32 1031.30 1031.25 1031.17 1031.07 1030.96 1030.85 1030.74 1030.64 1030.55 1030.49 1030.45 1030.43 1030.43 1030.45 1030.48 1030.50 1030.53 1030.54 1030.53
1027.51 1027.78 1028.05 1028.30 1028.54 1028.78 1029.02 1029.27 1029.52 1029.77 1030.03 1030.28 1030.50 1030.70 1030.86 1030.99 1031.07 1031.10 1031.10 1031.07 1031.00 1030.91 1030.80 1030.67 1030.54 1030.40 1030.26 1030.14 1030.04 1029.96 1029.90 1029.88 1029.88 1029.89 1029.92 1029.95 1029.97 1029.99
1027.65 1027.92 1028.17 1028.40 1028.62 1028.83 1029.04 1029.25 1029.47 1029.68 1029.90 1030.10 1030.29 1030.45 1030.59 1030.69 1030.75 1030.78 1030.78 1030.74 1030.68 1030.58 1030.47 1030.33 1030.18 1030.02 1029.85 1029.69 1029.55 1029.43 1029.33 1029.27 1029.24 1029.24 1029.25 1029.29 1029.32 1029.35
1027.93 1028.17 1028.39 1028.59 1028.78 1028.95 1029.11 1029.27 1029.43 1029.59 1029.74 1029.89 1030.03 1030.14 1030.24 1030.31 1030.36 1030.39 1030.38 1030.36 1030.30 1030.21 1030.10 1029.96 1029.79 1029.61 1029.41 1029.21 1029.03 1028.86 1028.73 1028.63 1028.56 1028.53 1028.53 1028.56 1028.60 1028.64
1028.33 1028.53 1028.72 1028.88 1029.02 1029.14 1029.25 1029.36 1029.46 1029.55 1029.64 1029.73 1029.81 1029.88 1029.93 1029.98 1030.01 1030.02 1030.02 1029.99 1029.94 1029.86 1029.75 1029.60 1029.41 1029.20 1028.97 1028.74 1028.50 1028.29 1028.11 1027.97 1027.87 1027.81 1027.79 1027.80 1027.83 1027.87
1028.83 1028.98 1029.13 1029.25 1029.36 1029.44 1029.51 1029.57 1029.61 1029.65 1029.69 1029.72 1029.74 1029.76 1029.78 1029.79 1029.79 1029.79 1029.78 1029.74 1029.68 1029.59 1029.46 1029.29 1029.08 1028.83 1028.56 1028.28 1028.01 1027.75 1027.52 1027.33 1027.20 1027.11 1027.06 1027.05 1027.06 1027.08
1029.37 1029.49 1029.60 1029.70 1029.78 1029.85 1029.89 1029.93 1029.94 1029.94 1029.94 1029.93 1029.91 1029.88 1029.86 1029.83 1029.80 1029.77 1029.72 1029.66 1029.57 1029.44 1029.28 1029.07 1028.81 1028.52 1028.21 1027.88 1027.55 1027.25 1026.98 1026.75 1026.57 1026.45 1026.37 1026.33 1026.31 1026.31
1029.92 1030.02 1030.12 1030.21 1030.29 1030.35 1030.40 1030.42 1030.44 1030.43 1030.40 1030.37 1030.31 1030.25 1030.19 1030.12 1030.04 1029.96 1029.86 1029.75 1029.60 1029.42 1029.20 1028.93 1028.63 1028.28 1027.91 1027.54 1027.16 1026.81 1026.50 1026.23 1026.02 1025.85 1025.73 1025.65 1025.60 1025.56
1030.44 1030.53 1030.63 1030.72 1030.82 1030.90 1030.97 1031.02 1031.05 1031.05 1031.03 1030.98 1030.91 1030.82 1030.72 1030.60 1030.47 1030.33 1030.16 1029.97 1029.76 1029.50 1029.21 1028.87 1028.50 1028.10 1027.68 1027.25 1026.83 1026.44 1026.08 1025.78 1025.52 1025.31 1025.15 1025.02 1024.92 1024.84
1030.90 1030.99 1031.09 1031.21 1031.33 1031.44 1031.55 1031.63 1031.69 1031.71 1031.70 1031.66 1031.58 1031.47 1031.33 1031.16 1030.97 1030.76 1030.51 1030.25 1029.94 1029.61 1029.24 1028.83 1028.40 1027.94 1027.47 1026.99 1026.54 1026.11 1025.71 1025.36 1025.06 1024.80 1024.58 1024.40 1024.24 1024.09
1031.28 1031.37 1031.48 1031.61 1031.75 1031.90 1032.03 1032.15 1032.23 1032.28 1032.29 1032.25 1032.17 1032.04 1031.87 1031.65 1031.41 1031.13 1030.81 1030.47 1030.09 1029.67 1029.23 1028.77 1028.28 1027.77 1027.26 1026.76 1026.27 1025.80 1025.37 1024.97 1024.62 1024.30 1024.01 1023.75 1023.52 1023.31
1031.55 1031.63 1031.74 1031.88 1032.03 1032.19 1032.35 1032.48 1032.59 1032.65 1032.67 1032.64 1032.55 1032.40 1032.21 1031.96 1031.66 1031.33 1030.96 1030.55 1030.11 1029.64 1029.15 1028.64 1028.11 1027.58 1027.04 1026.52 1026.00 1025.50 1025.03 1024.59 1024.17 1023.78 1023.41 1023.07 1022.75 1022.45
1031.70 1031.77 1031.87 1031.99 1032.14 1032.29 1032.44 1032.57 1032.67 1032.74 1032.76 1032.72 1032.63 1032.47 1032.26 1031.99 1031.67 1031.30 1030.90 1030.45 1029.98 1029.49 1028.97 1028.44 1027.90 1027.36 1026.82 1026.28 1025.74 1025.21 1024.70 1024.20 1023.71 1023.24 1022.78 1022.34 1021.93 1021.54
1031.74 1031.79 1031.86 1031.95 1032.06 1032.18 1032.30 1032.41 1032.49 1032.54 1032.55 1032.50 1032.40 1032.24 1032.03 1031.75 1031.43 1031.05 1030.64 1030.20 1029.72 1029.23 1028.72 1028.20 1027.67 1027.13 1026.59 1026.04 1025.49 1024.94 1024.38 1023.81 1023.25 1022.69 1022.13 1021.59 1021.07 1020.59
1031.69 1031.70 1031.73 1031.78 1031.85 1031.92 1031.99 1032.05 1032.10 1032.12 1032.10 1032.04 1031.93 1031.77 1031.56 1031.30 1030.99 1030.63 1030.24 1029.82 1029.37 1028.90 1028.42 1027.93 1027.42 1026.90 1026.37 1025.82 1025.26 1024.67 1024.07 1023.44 1022.80 1022.15 1021.50 1020.86 1020.24 1019.66
1031.55 1031.53 1031.52 1031.52 1031.53 1031.54 1031.56 1031.57 1031.56 1031.54 1031.50 1031.42 1031.31 1031.15 1030.96 1030.71 1030.43 1030.11 1029.75 1029.37 1028.96 1028.53 1028.09 1027.63 1027.16 1026.66 1026.14 1025.59 1025.01 1024.40 1023.75 1023.07 1022.36 1021.63 1020.90 1020.17 1019.47 1018.81
1031.36 1031.31 1031.26 1031.22 1031.17 1031.12 1031.07 1031.03 1030.97 1030.91 1030.84 1030.74 1030.62 1030.47 1030.28 1030.06 1029.81 1029.52 1029.21 1028.87 1028.50 1028.12 1027.71 1027.29 1026.84 1026.36 1025.85 1025.30 1024.71 1024.08 1023.39 1022.67 1021.91 1021.13 1020.33 1019.55 1018.78 1018.06
1031.12 1031.05 1030.97 1030.88 1030.79 1030.69 1030.59 1030.49 1030.38 1030.28 1030.17 1030.04 1029.91 1029.75 1029.57 1029.37 1029.13 1028.87 1028.59 1028.28 1027.95 1027.59 1027.21 1026.81 1026.38 1025.92 1025.41 1024.86 1024.26 1023.61 1022.91 1022.17 1021.38 1020.58 1019.76 1018.95 1018.16 1017.42
Thickness
5465 5466 5467 5468 5470 5471 5471 5472 5472 5473 5478 5481 5481 5484 5485 5487 5488 5490 5491 5493 5495 5497 5500 5502 5503 5504 5506 5507 5508 5510 5511 5512 5513 5515 5516 5517 5519 5520
5452 5453 5454 5456 5457 5458 5459 5460 5462 5463 5465 5469 5469 5471 5472 5473 5475 5477 5480 5482 5483 5486 5488 5490 5491 5493 5494 5496 5497 5498 5499 5500 5502 5503 5504 5506 5507 5508
5439 5440 5441 5442 5444 5445 5446 5447 5449 5450 5451 5456 5456 5458 5458 5460 5462 5465 5467 5470 5472 5474 5476 5478 5480 5481 5483 5484 5485 5486 5487 5488 5489 5491 5492 5493 5494 5496
5426 5427 5428 5429 5430 5431 5433 5434 5435 5437 5437 5440 5442 5443 5445 5447 5449 5452 5455 5457 5459 5461 5464 5466 5468 5470 5471 5472 5473 5474 5475 5476 5477 5478 5480 5481 5482 5482
5414 5414 5415 5416 5417 5418 5419 5420 5421 5423 5424 5426 5428 5430 5431 5433 5435 5438 5441 5444 5446 5449 5451 5453 5455 5457 5458 5459 5460 5461 5463 5464 5465 5466 5466 5467 5468 5469
5401 5402 5403 5403 5405 5405 5406 5407 5408 5409 5410 5411 5414 5415 5416 5419 5420 5423 5426 5429 5432 5434 5437 5440 5442 5444 5445 5446 5448 5448 5449 5450 5451 5452 5453 5454 5455 5455
5389 5390 5391 5392 5393 5393 5394 5394 5395 5395 5396 5397 5399 5401 5402 5403 5406 5409 5411 5414 5417 5420 5423 5426 5428 5430 5431 5432 5433 5435 5436 5437 5438 5439 5439 5440 5441 5441
5376 5377 5378 5379 5380 5381 5381 5382 5382 5382 5383 5383 5386 5387 5390 5390 5391 5393 5395 5398 5402 5406 5406 5410 5411 5415 5417 5418 5420 5421 5422 5423 5424 5425 5425 5426 5427 5427
5364 5364 5366 5367 5367 5367 5368 5368 5368 5369 5371 5371 5372 5374 5376 5377 5377 5379 5381 5383 5387 5389 5390 5396 5397 5400 5402 5404 5405 5406 5408 5409 5409 5410 5410 5411 5412 5413
5352 5352 5353 5354 5355 5354 5354 5355 5355 5356 5357 5357 5359 5361 5362 5362 5363 5364 5366 5368 5371 5373 5374 5379 5382 5384 5387 5388 5389 5391 5392 5393 5394 5395 5395 5396 5397 5398
5340 5341 5341 5342 5342 5342 5342 5342 5342 5342 5342 5344 5345 5347 5348 5349 5349 5349 5350 5352 5356 5358 5359 5361 5366 5367 5372 5374 5375 5376 5377 5377 5379 5379 5380 5381 5381 5383
5328 5329 5329 5330 5330 5330 5329 5329 5328 5329 5329 5329 5331 5332 5333 5334 5334 5334 5336 5337 5339 5342 5345 5344 5347 5348 5354 5361 5361 5361 5361 5362 5363 5364 5365 5366 5366 5368
5317 5318 5318 5318 5319 5319 5318 5317 5317 5316 5315 5315 5316 5317 5318 5319 5320 5321 5321 5322 5324 5326 5328 5328 5330 5331 5332 5340 5346 5346 5346 5347 5348 5349 5350 5351 5352 5353
5306 5306 5306 5307 5307 5307 5306 5307 5306 5305 5304 5303 5303 5304 5304 5305 5306 5307 5308 5309 5310 5312 5313 5313 5314 5316 5317 5320 5326 5331 5331 5332 5333 5335 5336 5337 5338 5339
5295 5295 5296 5296 5295 5295 5295 5295 5295 5294 5293 5292 5292 5292 5292 5292 5293 5293 5294 5296 5298 5299 5300 5300 5301 5303 5303 5305 5309 5312 5315 5318 5319 5320 5321 5322 5324 5325
5282 5282 5283 5283 5283 5283 5282 5282 5282 5282 5282 5281 5280 5280 5279 5279 5280 5280 5281 5283 5285 5287 5287 5287 5288 5289 5291 5292 5293 5297 5298 5300 5304 5305 5307 5309 5310 5312
5270 5269 5269 5269 5269 5269 5269 5268 5268 5268 5269 5269 5268 5267 5267 5267 5268 5268 5269 5270 5271 5273 5275 5275 5275 5276 5278 5278 5280 5283 5285 5286 5288 5290 5293 5296 5298 5299
5257 5256 5255 5255 5256 5256 5256 5255 5255 5255 5256 5256 5256 5255 5255 5255 5255 5255 5256 5258 5259 5261 5261 5262 5262 5263 5265 5267 5268 5270 5271 5273 5274 5276 5278 5281 5286 5287
5243 5243 5243 5243 5243 5243 5243 5243 5243 5243 5243 5243 5243 5243 5243 5242 5242 5243 5244 5245 5246 5248 5248 5248 5248 5248 5249 5254 5257 5256 5257 5259 5260 5263 5265 5267 5272 5276
5230 5230 5230 5230 5230 5230 5231 5231 5231 5231 5231 5231 5231 5231 5230 5230 5230 5231 5231 5232 5233 5234 5235 5235 5235 5235 5235 5238 5242 5245 5244 5245 5247 5249 5253 5256 5259 5263
5217 5218 5218 5218 5218 5218 5219 5219 5219 5219 5219 5219 5219 5219 5219 5218 5218 5219 5219 5220 5220 5221 5222 5223 5224 5223 5223 5224 5227 5231 5232 5232 5234 5236 5239 5242 5246 5249
5205 5205 5206 5207 5207 5207 5207 5208 5207 5207 5207 5207 5208 5208 5207 5207 5207 5207 5208 5208 5208 5209 5210 5211 5211 5211 5211 5212 5214 5217 5219 5221 5222 5224 5226 5229 5230 5235
5194 5194 5195 5196 5196 5196 5196 5196 5196 5196 5196 5196 5196 5196 5196 5196 5196 5196 5196 5196 5196 5197 5198 5199 5199 5199 5199 5200 5200 5203 5205 5207 5210 5213 5216 5218 5220 5224